Time,TemperatureF,DewpointF,PressureIn,WindDirection,WindDirectionDegrees,WindSpeedMPH,WindSpeedGustMPH,Humidity,HourlyPrecipIn,Conditions,Clouds,dailyrainin,SoftwareType,DateUTC
2013-01-25 00:01:00,46.6,6.5,29.65,NNE,24,0.0,0.0,19,0.00,,---,0.00,VWS V14.00,2013-01-25 05:01:00,
2013-01-25 00:04:00,46.6,6.5,29.65,NNE,24,0.0,0.0,19,0.00,,---,0.00,VWS V14.00,2013-01-25 05:04:00,
2013-01-25 00:07:00,46.6,6.5,29.65,NNE,24,0.0,0.0,19,0.00,,---,0.00,VWS V14.00,2013-01-25 05:07:00,
2013-01-25 00:12:00,46.6,6.5,29.65,NNE,24,0.0,0.0,19,0.00,,---,0.00,VWS V14.00,2013-01-25 05:12:00,
2013-01-25 00:18:00,46.6,6.5,29.65,NNE,33,4.0,4.0,19,0.00,,---,0.00,VWS V14.00,2013-01-25 05:18:00,
2013-01-25 00:23:00,46.6,6.5,29.65,NNE,33,4.0,4.0,19,0.00,,---,0.00,VWS V14.00,2013-01-25 05:23:00,
2013-01-25 00:28:00,46.6,6.5,29.65,NNE,33,4.0,4.0,19,0.00,,---,0.00,VWS V14.00,2013-01-25 05:28:00,
2013-01-25 00:34:00,46.6,6.5,29.65,North,2,2.2,2.2,19,0.00,,---,0.00,VWS V14.00,2013-01-25 05:34:00,
2013-01-25 00:40:00,46.6,6.5,29.65,ENE,72,5.4,5.4,19,0.00,,---,0.00,VWS V14.00,2013-01-25 05:40:00,
2013-01-25 00:45:00,46.6,6.5,29.65,NNE,26,3.6,5.4,19,0.00,,---,0.00,VWS V14.00,2013-01-25 05:45:00,
2013-01-25 00:51:00,46.9,6.8,29.65,NNE,26,3.6,3.6,19,0.00,,---,0.00,VWS V14.00,2013-01-25 05:51:00,
2013-01-25 00:56:00,46.9,6.8,29.65,North,2,0.0,3.6,19,0.00,,---,0.00,VWS V14.00,2013-01-25 05:56:00,
2013-01-25 01:01:00,46.9,6.8,29.65,NE,51,0.0,0.0,19,0.00,,---,0.00,VWS V14.00,2013-01-25 06:01:00,
2013-01-25 01:06:00,46.9,6.8,29.65,NE,44,3.6,3.6,19,0.00,,---,0.00,VWS V14.00,2013-01-25 06:06:00,
2013-01-25 01:12:00,46.9,6.8,29.65,North,353,0.0,0.0,19,0.00,,---,0.00,VWS V14.00,2013-01-25 06:12:00,
2013-01-25 01:17:00,46.9,6.8,29.65,NE,40,2.2,2.2,19,0.00,,---,0.00,VWS V14.00,2013-01-25 06:17:00,
2013-01-25 01:22:00,46.9,6.8,29.65,NNE,24,2.2,2.7,19,0.00,,---,0.00,VWS V14.00,2013-01-25 06:22:00,
2013-01-25 01:27:00,46.9,6.8,29.65,NE,51,2.2,2.7,19,0.00,,---,0.00,VWS V14.00,2013-01-25 06:27:00,
2013-01-25 01:32:00,46.9,6.8,29.65,NE,49,2.7,2.7,19,0.00,,---,0.00,VWS V14.00,2013-01-25 06:32:00,
2013-01-25 01:37:00,46.6,6.5,29.65,NNE,26,4.9,4.9,19,0.00,,---,0.00,VWS V14.00,2013-01-25 06:37:00,
2013-01-25 01:43:00,46.6,6.5,29.65,NE,44,3.1,3.1,19,0.00,,---,0.00,VWS V14.00,2013-01-25 06:43:00,
2013-01-25 01:48:00,46.4,6.4,29.65,NE,51,2.2,3.1,19,0.00,,---,0.00,VWS V14.00,2013-01-25 06:48:00,
2013-01-25 01:53:00,46.4,6.4,29.65,NE,51,2.2,2.2,19,0.00,,---,0.00,VWS V14.00,2013-01-25 06:53:00,
2013-01-25 01:58:00,46.4,6.4,29.65,NE,51,2.2,2.2,19,0.00,,---,0.00,VWS V14.00,2013-01-25 06:58:00,
2013-01-25 02:03:00,46.4,6.4,29.65,NE,51,2.2,2.2,19,0.00,,---,0.00,VWS V14.00,2013-01-25 07:03:00,
2013-01-25 02:08:00,46.2,7.4,29.65,NE,51,2.2,2.2,20,0.00,,---,0.00,VWS V14.00,2013-01-25 07:08:00,
2013-01-25 02:13:00,46.2,7.4,29.65,NE,51,2.2,2.2,20,0.00,,---,0.00,VWS V14.00,2013-01-25 07:13:00,
2013-01-25 02:18:00,46.2,7.4,29.65,NE,51,2.2,2.2,20,0.00,,---,0.00,VWS V14.00,2013-01-25 07:18:00,
2013-01-25 02:24:00,46.2,7.4,29.65,NE,51,2.2,2.2,20,0.00,,---,0.00,VWS V14.00,2013-01-25 07:24:00,
2013-01-25 02:30:00,46.2,7.4,29.65,NE,51,2.2,2.2,20,0.00,,---,0.00,VWS V14.00,2013-01-25 07:30:00,
2013-01-25 02:36:00,46.2,7.4,29.65,NE,51,2.2,2.2,20,0.00,,---,0.00,VWS V14.00,2013-01-25 07:36:00,
2013-01-25 02:41:00,46.2,7.4,29.65,NE,51,2.2,2.2,20,0.00,,---,0.00,VWS V14.00,2013-01-25 07:41:00,
2013-01-25 02:46:00,46.2,7.4,29.65,NE,51,2.2,2.2,20,0.00,,---,0.00,VWS V14.00,2013-01-25 07:46:00,
2013-01-25 02:52:00,46.2,7.4,29.65,NE,51,2.2,2.2,20,0.00,,---,0.00,VWS V14.00,2013-01-25 07:52:00,
2013-01-25 02:57:00,46.2,7.4,29.62,NE,51,2.2,2.2,20,0.00,,---,0.00,VWS V14.00,2013-01-25 07:57:00,
2013-01-25 03:02:00,46.2,7.4,29.62,NE,51,2.2,2.2,20,0.00,,---,0.00,VWS V14.00,2013-01-25 08:02:00,
2013-01-25 03:07:00,46.2,7.4,29.62,NE,51,2.2,2.2,20,0.00,,---,0.00,VWS V14.00,2013-01-25 08:07:00,
2013-01-25 03:12:00,46.2,7.4,29.62,NE,51,2.2,2.2,20,0.00,,---,0.00,VWS V14.00,2013-01-25 08:12:00,
2013-01-25 03:17:00,46.2,7.4,29.62,NE,51,2.2,2.2,20,0.00,,---,0.00,VWS V14.00,2013-01-25 08:17:00,
2013-01-25 03:22:00,46.2,7.4,29.62,NE,51,2.2,2.2,20,0.00,,---,0.00,VWS V14.00,2013-01-25 08:22:00,
2013-01-25 03:28:00,46.2,7.4,29.62,NE,51,2.2,2.2,20,0.00,,---,0.00,VWS V14.00,2013-01-25 08:28:00,
2013-01-25 03:33:00,46.2,7.4,29.62,NE,51,2.2,2.2,20,0.00,,---,0.00,VWS V14.00,2013-01-25 08:33:00,
2013-01-25 03:38:00,46.2,7.4,29.62,NE,51,2.2,2.2,20,0.00,,---,0.00,VWS V14.00,2013-01-25 08:38:00,
2013-01-25 03:43:00,46.2,7.4,29.65,NE,51,2.2,2.2,20,0.00,,---,0.00,VWS V14.00,2013-01-25 08:43:00,
2013-01-25 03:48:00,46.2,7.4,29.65,NE,51,2.2,2.2,20,0.00,,---,0.00,VWS V14.00,2013-01-25 08:48:00,
2013-01-25 03:53:00,46.2,7.4,29.65,NE,51,2.2,2.2,20,0.00,,---,0.00,VWS V14.00,2013-01-25 08:53:00,
2013-01-25 03:59:00,46.2,7.4,29.65,NE,51,2.2,2.2,20,0.00,,---,0.00,VWS V14.00,2013-01-25 08:59:00,
2013-01-25 04:04:00,46.2,7.4,29.65,NE,51,2.2,2.2,20,0.00,,---,0.00,VWS V14.00,2013-01-25 09:04:00,
2013-01-25 04:09:00,46.2,7.4,29.65,NE,51,2.2,2.2,20,0.00,,---,0.00,VWS V14.00,2013-01-25 09:09:00,
2013-01-25 04:14:00,46.2,7.4,29.65,NE,51,2.2,2.2,20,0.00,,---,0.00,VWS V14.00,2013-01-25 09:14:00,
2013-01-25 04:19:00,46.2,7.4,29.65,NE,51,2.2,2.2,20,0.00,,---,0.00,VWS V14.00,2013-01-25 09:19:00,
2013-01-25 04:25:00,46.2,7.4,29.65,NE,51,2.2,2.2,20,0.00,,---,0.00,VWS V14.00,2013-01-25 09:25:00,
2013-01-25 04:30:00,46.2,7.4,29.65,NE,51,2.2,2.2,20,0.00,,---,0.00,VWS V14.00,2013-01-25 09:30:00,
2013-01-25 04:35:00,46.2,7.4,29.65,NE,51,2.2,2.2,20,0.00,,---,0.00,VWS V14.00,2013-01-25 09:35:00,
2013-01-25 04:40:00,46.2,7.4,29.65,NE,51,2.2,2.2,20,0.00,,---,0.00,VWS V14.00,2013-01-25 09:40:00,
2013-01-25 04:46:00,46.2,7.4,29.65,NE,51,2.2,2.2,20,0.00,,---,0.00,VWS V14.00,2013-01-25 09:46:00,
2013-01-25 04:51:00,46.2,7.4,29.65,NE,51,2.2,2.2,20,0.00,,---,0.00,VWS V14.00,2013-01-25 09:51:00,
2013-01-25 04:56:00,46.2,7.4,29.65,NE,51,2.2,2.2,20,0.00,,---,0.00,VWS V14.00,2013-01-25 09:56:00,
2013-01-25 05:01:00,46.2,7.4,29.65,NE,51,2.2,2.2,20,0.00,,---,0.00,VWS V14.00,2013-01-25 10:01:00,
2013-01-25 05:06:00,46.2,7.4,29.65,NE,51,2.2,2.2,20,0.00,,---,0.00,VWS V14.00,2013-01-25 10:06:00,
2013-01-25 05:11:00,46.2,7.4,29.65,NE,51,2.2,2.2,20,0.00,,---,0.00,VWS V14.00,2013-01-25 10:11:00,
2013-01-25 05:16:00,46.2,7.4,29.65,NE,51,2.2,2.2,20,0.00,,---,0.00,VWS V14.00,2013-01-25 10:16:00,
2013-01-25 05:22:00,46.2,7.4,29.65,NE,51,20.6,20.6,20,0.00,,---,0.00,VWS V14.00,2013-01-25 10:22:00,
2013-01-25 05:27:00,46.2,7.4,29.65,NE,51,20.6,20.6,20,0.00,,---,0.00,VWS V14.00,2013-01-25 10:27:00,
2013-01-25 05:32:00,46.2,7.4,29.65,NE,51,20.6,20.6,20,0.00,,---,0.00,VWS V14.00,2013-01-25 10:32:00,
2013-01-25 05:37:00,46.2,7.4,29.65,NE,51,20.6,20.6,20,0.00,,---,0.00,VWS V14.00,2013-01-25 10:37:00,
2013-01-25 05:42:00,46.2,7.4,29.65,NE,51,20.6,20.6,20,0.00,,---,0.00,VWS V14.00,2013-01-25 10:42:00,
2013-01-25 05:47:00,44.4,5.9,29.65,NE,51,20.6,20.6,20,0.00,,---,0.00,VWS V14.00,2013-01-25 10:47:00,
2013-01-25 05:53:00,44.2,5.7,29.65,NE,51,20.6,20.6,20,0.00,,---,0.00,VWS V14.00,2013-01-25 10:53:00,
2013-01-25 05:58:00,44.1,5.6,29.62,NE,51,20.6,20.6,20,0.00,,---,0.00,VWS V14.00,2013-01-25 10:58:00,
2013-01-25 06:03:00,44.1,5.6,29.62,East,98,8.3,8.3,20,0.00,,---,0.00,VWS V14.00,2013-01-25 11:03:00,
2013-01-25 06:08:00,44.1,5.6,29.62,NE,44,0.0,0.0,20,0.00,,---,0.00,VWS V14.00,2013-01-25 11:08:00,
2013-01-25 06:14:00,43.7,5.3,29.65,East,84,4.9,4.9,20,0.00,,---,0.00,VWS V14.00,2013-01-25 11:14:00,
2013-01-25 06:19:00,43.7,5.3,29.65,NE,53,2.7,2.7,20,0.00,,---,0.00,VWS V14.00,2013-01-25 11:19:00,
2013-01-25 06:25:00,43.7,5.3,29.65,NNE,16,3.1,3.6,20,0.00,,---,0.00,VWS V14.00,2013-01-25 11:25:00,
2013-01-25 06:31:00,43.7,5.3,29.65,North,2,2.7,4.9,20,0.00,,---,0.00,VWS V14.00,2013-01-25 11:31:00,
2013-01-25 06:36:00,43.7,5.3,29.65,East,85,2.2,3.6,20,0.00,,---,0.00,VWS V14.00,2013-01-25 11:36:00,
2013-01-25 06:41:00,43.7,5.3,29.65,ENE,65,3.1,3.6,20,0.00,,---,0.00,VWS V14.00,2013-01-25 11:41:00,
2013-01-25 06:46:00,43.7,5.3,29.65,ESE,105,0.0,5.4,20,0.00,,---,0.00,VWS V14.00,2013-01-25 11:46:00,
2013-01-25 06:52:00,43.7,5.3,29.65,East,82,0.0,3.6,20,0.00,,---,0.00,VWS V14.00,2013-01-25 11:52:00,
2013-01-25 06:57:00,43.7,5.3,29.62,East,86,7.6,7.6,20,0.00,,---,0.00,VWS V14.00,2013-01-25 11:57:00,
2013-01-25 07:03:00,43.7,5.3,29.62,East,93,4.0,4.0,20,0.00,,---,0.00,VWS V14.00,2013-01-25 12:03:00,
2013-01-25 07:08:00,43.7,5.3,29.62,NE,37,3.1,4.0,20,0.00,,---,0.00,VWS V14.00,2013-01-25 12:08:00,
2013-01-25 07:14:00,43.7,5.3,29.65,NE,52,3.6,5.8,20,0.00,,---,0.00,VWS V14.00,2013-01-25 12:14:00,
2013-01-25 07:19:00,43.7,5.3,29.65,NE,43,4.9,4.9,20,0.00,,---,0.00,VWS V14.00,2013-01-25 12:19:00,
2013-01-25 07:24:00,43.7,5.3,29.65,NE,43,4.9,4.9,20,0.00,,---,0.00,VWS V14.00,2013-01-25 12:24:00,
2013-01-25 07:29:00,41.4,4.4,29.65,NE,43,4.9,4.9,21,0.00,,---,0.00,VWS V14.00,2013-01-25 12:29:00,
2013-01-25 07:35:00,41.4,4.4,29.65,NE,43,4.9,4.9,21,0.00,,---,0.00,VWS V14.00,2013-01-25 12:35:00,
2013-01-25 07:40:00,41.2,4.2,29.65,NE,43,4.9,4.9,21,0.00,,---,0.00,VWS V14.00,2013-01-25 12:40:00,
2013-01-25 07:45:00,41.0,4.1,29.65,NE,43,4.9,4.9,21,0.00,,---,0.00,VWS V14.00,2013-01-25 12:45:00,
2013-01-25 07:50:00,40.8,3.9,29.65,NE,43,4.9,4.9,21,0.00,,---,0.00,VWS V14.00,2013-01-25 12:50:00,
2013-01-25 07:55:00,40.8,3.9,29.65,NE,43,4.9,4.9,21,0.00,,---,0.00,VWS V14.00,2013-01-25 12:55:00,
2013-01-25 08:01:00,40.8,3.9,29.65,NE,43,4.9,4.9,21,0.00,,---,0.00,VWS V14.00,2013-01-25 13:01:00,
2013-01-25 08:06:00,40.8,3.9,29.65,East,98,0.0,0.0,21,0.00,,---,0.00,VWS V14.00,2013-01-25 13:06:00,
2013-01-25 08:11:00,40.6,3.8,29.65,East,97,0.0,0.0,21,0.00,,---,0.00,VWS V14.00,2013-01-25 13:11:00,
2013-01-25 08:16:00,40.6,3.8,29.65,East,97,0.0,0.0,21,0.00,,---,0.00,VWS V14.00,2013-01-25 13:16:00,
2013-01-25 08:22:00,40.6,3.8,29.65,East,97,0.0,0.0,21,0.00,,---,0.00,VWS V14.00,2013-01-25 13:22:00,
2013-01-25 08:28:00,40.5,3.6,29.65,ENE,68,0.0,0.0,21,0.00,,---,0.00,VWS V14.00,2013-01-25 13:28:00,
2013-01-25 08:34:00,40.5,3.6,29.65,ENE,70,3.1,3.1,21,0.00,,---,0.00,VWS V14.00,2013-01-25 13:34:00,
2013-01-25 08:39:00,40.3,3.5,29.65,East,79,0.0,0.0,21,0.00,,---,0.00,VWS V14.00,2013-01-25 13:39:00,
2013-01-25 08:45:00,40.1,3.3,29.65,East,93,5.8,5.8,21,0.00,,---,0.00,VWS V14.00,2013-01-25 13:45:00,
2013-01-25 08:51:00,39.9,3.2,29.65,NE,52,0.0,0.0,21,0.00,,---,0.00,VWS V14.00,2013-01-25 13:51:00,
2013-01-25 08:56:00,39.9,3.2,29.65,ENE,77,2.2,2.2,21,0.00,,---,0.00,VWS V14.00,2013-01-25 13:56:00,
2013-01-25 09:01:00,40.5,3.6,29.65,ESE,118,2.7,3.6,21,0.00,,---,0.00,VWS V14.00,2013-01-25 14:01:00,
2013-01-25 09:07:00,41.0,4.1,29.65,ESE,118,2.7,2.7,21,0.00,,---,0.00,VWS V14.00,2013-01-25 14:07:00,
2013-01-25 09:12:00,41.7,4.7,29.65,ESE,103,3.1,3.1,21,0.00,,---,0.00,VWS V14.00,2013-01-25 14:12:00,
2013-01-25 09:17:00,42.1,5.0,29.65,East,91,0.0,0.0,21,0.00,,---,0.00,VWS V14.00,2013-01-25 14:17:00,
2013-01-25 09:22:00,41.5,4.5,29.65,ENE,57,6.3,6.3,21,0.00,,---,0.00,VWS V14.00,2013-01-25 14:22:00,
2013-01-25 09:27:00,41.9,4.8,29.65,NE,39,2.2,2.2,21,0.00,,---,0.00,VWS V14.00,2013-01-25 14:27:00,
2013-01-25 09:32:00,42.8,4.5,29.65,NE,39,2.2,2.2,20,0.00,,---,0.00,VWS V14.00,2013-01-25 14:32:00,
2013-01-25 09:38:00,43.2,4.8,29.65,NE,39,2.2,2.2,20,0.00,,---,0.00,VWS V14.00,2013-01-25 14:38:00,
2013-01-25 09:43:00,43.2,4.8,29.65,NE,39,2.2,2.2,20,0.00,,---,0.00,VWS V14.00,2013-01-25 14:43:00,
2013-01-25 09:48:00,43.2,4.8,29.65,NE,39,2.2,2.2,20,0.00,,---,0.00,VWS V14.00,2013-01-25 14:48:00,
2013-01-25 09:53:00,43.2,4.8,29.65,East,79,2.2,2.2,20,0.00,,---,0.00,VWS V14.00,2013-01-25 14:53:00,
2013-01-25 09:58:00,44.4,5.9,29.65,East,79,2.2,2.2,20,0.00,,---,0.00,VWS V14.00,2013-01-25 14:58:00,
2013-01-25 10:04:00,44.8,6.2,29.65,East,79,2.2,2.2,20,0.00,,---,0.00,VWS V14.00,2013-01-25 15:04:00,
2013-01-25 10:09:00,45.9,7.1,29.65,ESE,112,3.6,3.6,20,0.00,,---,0.00,VWS V14.00,2013-01-25 15:09:00,
2013-01-25 10:15:00,46.6,6.5,29.65,ESE,112,3.6,3.6,19,0.00,,---,0.00,VWS V14.00,2013-01-25 15:15:00,
2013-01-25 10:20:00,46.6,6.5,29.65,ESE,112,3.6,3.6,19,0.00,,---,0.00,VWS V14.00,2013-01-25 15:20:00,
2013-01-25 10:26:00,46.6,6.5,29.65,ESE,112,3.6,3.6,19,0.00,,---,0.00,VWS V14.00,2013-01-25 15:26:00,
2013-01-25 10:31:00,46.6,6.5,29.62,ESE,121,5.4,5.8,19,0.00,,---,0.00,VWS V14.00,2013-01-25 15:31:00,
2013-01-25 10:36:00,47.1,7.0,29.62,ESE,115,8.7,8.7,19,0.00,,---,0.00,VWS V14.00,2013-01-25 15:36:00,
2013-01-25 10:42:00,47.5,7.3,29.62,ESE,120,4.9,6.3,19,0.00,,---,0.00,VWS V14.00,2013-01-25 15:42:00,
2013-01-25 10:47:00,47.7,7.4,29.62,East,83,4.0,5.4,19,0.00,,---,0.00,VWS V14.00,2013-01-25 15:47:00,
2013-01-25 10:52:00,47.8,7.6,29.62,SSE,156,3.6,3.6,19,0.00,,---,0.00,VWS V14.00,2013-01-25 15:52:00,
2013-01-25 10:57:00,48.2,7.9,29.62,SSE,159,5.4,6.3,19,0.00,,---,0.00,VWS V14.00,2013-01-25 15:57:00,
2013-01-25 11:02:00,48.6,8.2,29.62,East,98,2.7,4.9,19,0.00,,---,0.00,VWS V14.00,2013-01-25 16:02:00,
2013-01-25 11:07:00,48.7,8.3,29.62,NNE,25,3.6,3.6,19,0.00,,---,0.00,VWS V14.00,2013-01-25 16:07:00,
2013-01-25 11:12:00,48.7,8.3,29.62,East,82,0.0,0.0,19,0.00,,---,0.00,VWS V14.00,2013-01-25 16:12:00,
2013-01-25 11:18:00,49.5,8.9,29.62,ESE,121,2.2,2.2,19,0.00,,---,0.00,VWS V14.00,2013-01-25 16:18:00,
2013-01-25 11:23:00,50.2,9.5,29.62,SE,124,3.6,3.6,19,0.00,,---,0.00,VWS V14.00,2013-01-25 16:23:00,
2013-01-25 11:29:00,50.4,9.7,29.62,SE,140,0.0,3.1,19,0.00,,---,0.00,VWS V14.00,2013-01-25 16:29:00,
2013-01-25 11:35:00,51.1,10.3,29.62,ESE,119,2.7,5.4,19,0.00,,---,0.00,VWS V14.00,2013-01-25 16:35:00,
2013-01-25 11:40:00,50.7,10.0,29.62,SSW,195,0.0,0.0,19,0.00,,---,0.00,VWS V14.00,2013-01-25 16:40:00,
2013-01-25 11:45:00,50.2,9.5,29.62,NW,308,0.0,0.0,19,0.00,,---,0.00,VWS V14.00,2013-01-25 16:45:00,
2013-01-25 11:51:00,50.0,9.4,29.62,ESE,109,0.0,0.0,19,0.00,,---,0.00,VWS V14.00,2013-01-25 16:51:00,
2013-01-25 11:56:00,50.0,9.4,29.62,East,96,0.0,2.2,19,0.00,,---,0.00,VWS V14.00,2013-01-25 16:56:00,
2013-01-25 12:01:00,50.0,9.4,29.62,East,96,0.0,0.0,19,0.00,,---,0.00,VWS V14.00,2013-01-25 17:01:00,
2013-01-25 12:07:00,49.8,9.2,29.62,East,83,0.0,0.0,19,0.00,,---,0.00,VWS V14.00,2013-01-25 17:07:00,
2013-01-25 12:12:00,49.6,9.1,29.59,ESE,120,0.0,0.0,19,0.00,,---,0.00,VWS V14.00,2013-01-25 17:12:00,
2013-01-25 12:18:00,50.0,9.4,29.59,SE,126,2.7,2.7,19,0.00,,---,0.00,VWS V14.00,2013-01-25 17:18:00,
2013-01-25 12:23:00,50.2,9.5,29.59,SSE,151,0.0,3.6,19,0.00,,---,0.00,VWS V14.00,2013-01-25 17:23:00,
2013-01-25 12:29:00,50.4,9.7,29.59,East,80,0.0,0.0,19,0.00,,---,0.00,VWS V14.00,2013-01-25 17:29:00,
2013-01-25 12:34:00,50.5,9.8,29.59,ENE,60,0.0,0.0,19,0.00,,---,0.00,VWS V14.00,2013-01-25 17:34:00,
2013-01-25 12:39:00,50.7,10.0,29.59,ESE,119,2.2,2.7,19,0.00,,---,0.00,VWS V14.00,2013-01-25 17:39:00,
2013-01-25 12:44:00,50.7,10.0,29.59,SE,130,2.7,4.0,19,0.00,,---,0.00,VWS V14.00,2013-01-25 17:44:00,
2013-01-25 12:49:00,50.5,9.8,29.59,SSE,153,2.2,2.7,19,0.00,,---,0.00,VWS V14.00,2013-01-25 17:49:00,
2013-01-25 12:56:00,50.5,9.8,29.59,South,175,2.7,2.7,19,0.00,,---,0.00,VWS V14.00,2013-01-25 17:56:00,
2013-01-25 13:01:00,50.7,10.0,29.59,ENE,70,0.0,0.0,19,0.00,,---,0.00,VWS V14.00,2013-01-25 18:01:00,
2013-01-25 13:07:00,50.9,10.1,29.59,ENE,70,0.0,0.0,19,0.00,,---,0.00,VWS V14.00,2013-01-25 18:07:00,
2013-01-25 13:12:00,51.3,10.4,29.56,North,357,0.0,0.0,19,0.00,,---,0.00,VWS V14.00,2013-01-25 18:12:00,
2013-01-25 13:17:00,51.6,13.0,29.56,NE,52,0.0,0.0,21,0.00,,---,0.00,VWS V14.00,2013-01-25 18:17:00,
2013-01-25 13:23:00,51.6,13.0,29.56,East,81,0.0,0.0,21,0.00,,---,0.00,VWS V14.00,2013-01-25 18:23:00,
2013-01-25 13:28:00,51.8,13.1,29.56,SE,141,0.0,0.0,21,0.00,,---,0.00,VWS V14.00,2013-01-25 18:28:00,
2013-01-25 13:34:00,52.3,13.6,29.56,ESE,121,2.7,3.1,21,0.00,,---,0.00,VWS V14.00,2013-01-25 18:34:00,
2013-01-25 13:39:00,52.9,14.0,29.56,ESE,118,3.6,4.9,21,0.00,,---,0.00,VWS V14.00,2013-01-25 18:39:00,
2013-01-25 13:45:00,53.2,14.3,29.56,South,188,2.7,3.6,21,0.00,,---,0.00,VWS V14.00,2013-01-25 18:45:00,
2013-01-25 13:50:00,53.8,13.7,29.56,SSE,148,2.2,4.5,20,0.00,,---,0.00,VWS V14.00,2013-01-25 18:50:00,
2013-01-25 13:55:00,54.1,14.0,29.56,SSW,202,4.0,4.0,20,0.00,,---,0.00,VWS V14.00,2013-01-25 18:55:00,
2013-01-25 14:01:00,54.1,14.0,29.56,ESE,115,3.1,3.6,20,0.00,,---,0.00,VWS V14.00,2013-01-25 19:01:00,
2013-01-25 14:07:00,54.5,14.3,29.56,East,98,2.2,2.2,20,0.00,,---,0.00,VWS V14.00,2013-01-25 19:07:00,
2013-01-25 14:12:00,55.2,14.9,29.53,SE,132,3.1,4.9,20,0.00,,---,0.00,VWS V14.00,2013-01-25 19:12:00,
2013-01-25 14:17:00,55.8,15.3,29.53,SSE,162,4.0,4.0,20,0.00,,---,0.00,VWS V14.00,2013-01-25 19:17:00,
2013-01-25 14:24:00,55.9,15.5,29.53,WSW,248,3.6,4.0,20,0.00,,---,0.00,VWS V14.00,2013-01-25 19:24:00,
2013-01-25 14:29:00,56.1,15.6,29.53,SE,132,2.7,5.4,20,0.00,,---,0.00,VWS V14.00,2013-01-25 19:29:00,
2013-01-25 14:35:00,56.3,15.8,29.53,SSW,192,3.6,4.0,20,0.00,,---,0.00,VWS V14.00,2013-01-25 19:35:00,
2013-01-25 14:40:00,56.5,15.9,29.53,SSE,157,3.6,3.6,20,0.00,,---,0.00,VWS V14.00,2013-01-25 19:40:00,
2013-01-25 14:46:00,56.8,16.2,29.53,SSE,163,4.0,4.0,20,0.00,,---,0.00,VWS V14.00,2013-01-25 19:46:00,
2013-01-25 14:52:00,57.0,16.4,29.53,South,177,7.6,7.6,20,0.00,,---,0.00,VWS V14.00,2013-01-25 19:52:00,
2013-01-25 14:57:00,57.4,15.5,29.53,SSW,193,4.9,5.8,19,0.00,,---,0.00,VWS V14.00,2013-01-25 19:57:00,
2013-01-25 15:02:00,57.4,15.5,29.53,SSW,206,0.0,3.6,19,0.00,,---,0.00,VWS V14.00,2013-01-25 20:02:00,
2013-01-25 15:07:00,57.7,15.8,29.53,SE,140,3.6,4.9,19,0.00,,---,0.00,VWS V14.00,2013-01-25 20:07:00,
2013-01-25 15:13:00,57.9,15.9,29.50,SW,217,4.9,5.8,19,0.00,,---,0.00,VWS V14.00,2013-01-25 20:13:00,
2013-01-25 15:18:00,57.9,15.9,29.50,SSW,201,5.4,5.4,19,0.00,,---,0.00,VWS V14.00,2013-01-25 20:18:00,
2013-01-25 15:24:00,57.9,15.9,29.50,South,190,4.0,5.4,19,0.00,,---,0.00,VWS V14.00,2013-01-25 20:24:00,
2013-01-25 15:30:00,57.9,15.9,29.50,SE,143,3.1,5.4,19,0.00,,---,0.00,VWS V14.00,2013-01-25 20:30:00,
2013-01-25 15:35:00,57.9,15.9,29.50,SSE,164,4.0,5.4,19,0.00,,---,0.00,VWS V14.00,2013-01-25 20:35:00,
2013-01-25 15:41:00,57.9,15.9,29.50,WSW,238,6.3,6.3,19,0.00,,---,0.00,VWS V14.00,2013-01-25 20:41:00,
2013-01-25 15:46:00,58.5,16.4,29.50,SE,138,4.0,5.8,19,0.00,,---,0.00,VWS V14.00,2013-01-25 20:46:00,
2013-01-25 15:51:00,58.5,16.4,29.50,South,169,3.6,3.6,19,0.00,,---,0.00,VWS V14.00,2013-01-25 20:51:00,
2013-01-25 15:56:00,58.5,16.4,29.50,SSE,162,3.1,3.1,19,0.00,,---,0.00,VWS V14.00,2013-01-25 20:56:00,
2013-01-25 16:02:00,58.5,16.4,29.50,South,178,4.0,6.3,19,0.00,,---,0.00,VWS V14.00,2013-01-25 21:02:00,
2013-01-25 16:07:00,58.6,16.5,29.50,SSW,198,0.0,4.0,19,0.00,,---,0.00,VWS V14.00,2013-01-25 21:07:00,
2013-01-25 16:13:00,58.6,16.5,29.47,SSE,161,2.2,3.1,19,0.00,,---,0.00,VWS V14.00,2013-01-25 21:13:00,
2013-01-25 16:18:00,58.8,16.7,29.47,SSE,155,0.0,0.0,19,0.00,,---,0.00,VWS V14.00,2013-01-25 21:18:00,
2013-01-25 16:24:00,58.6,16.5,29.47,SE,139,0.0,3.1,19,0.00,,---,0.00,VWS V14.00,2013-01-25 21:24:00,
2013-01-25 16:29:00,58.6,16.5,29.47,SSE,162,2.7,2.7,19,0.00,,---,0.00,VWS V14.00,2013-01-25 21:29:00,
2013-01-25 16:35:00,58.8,16.7,29.50,SSE,159,0.0,0.0,19,0.00,,---,0.00,VWS V14.00,2013-01-25 21:35:00,
2013-01-25 16:40:00,59.0,16.8,29.50,SSE,161,3.6,4.0,19,0.00,,---,0.00,VWS V14.00,2013-01-25 21:40:00,
2013-01-25 16:45:00,59.0,16.8,29.47,SSE,159,0.0,2.7,19,0.00,,---,0.00,VWS V14.00,2013-01-25 21:45:00,
2013-01-25 16:51:00,59.2,17.0,29.47,SSE,159,0.0,0.0,19,0.00,,---,0.00,VWS V14.00,2013-01-25 21:51:00,
2013-01-25 16:56:00,59.2,17.0,29.47,SSE,159,0.0,0.0,19,0.00,,---,0.00,VWS V14.00,2013-01-25 21:56:00,
2013-01-25 17:02:00,59.0,16.8,29.47,SSE,159,0.0,0.0,19,0.00,,---,0.00,VWS V14.00,2013-01-25 22:02:00,
2013-01-25 17:08:00,58.8,16.7,29.47,SSE,153,0.0,0.0,19,0.00,,---,0.00,VWS V14.00,2013-01-25 22:08:00,
2013-01-25 17:13:00,58.5,16.4,29.47,SSE,149,0.0,0.0,19,0.00,,---,0.00,VWS V14.00,2013-01-25 22:13:00,
2013-01-25 17:19:00,58.3,16.2,29.47,SSE,149,0.0,0.0,19,0.00,,---,0.00,VWS V14.00,2013-01-25 22:19:00,
2013-01-25 17:25:00,58.1,16.1,29.47,SE,140,0.0,0.0,19,0.00,,---,0.00,VWS V14.00,2013-01-25 22:25:00,
2013-01-25 17:31:00,57.9,15.9,29.44,SE,140,0.0,0.0,19,0.00,,---,0.00,VWS V14.00,2013-01-25 22:31:00,
2013-01-25 17:37:00,57.6,15.6,29.44,SE,140,0.0,0.0,19,0.00,,---,0.00,VWS V14.00,2013-01-25 22:37:00,
2013-01-25 17:43:00,57.6,15.6,29.47,SE,140,0.0,0.0,19,0.00,,---,0.00,VWS V14.00,2013-01-25 22:43:00,
2013-01-25 17:48:00,57.6,15.6,29.47,SE,140,0.0,0.0,19,0.00,,---,0.00,VWS V14.00,2013-01-25 22:48:00,
2013-01-25 17:54:00,56.5,15.9,29.47,SE,140,0.0,0.0,20,0.00,,---,0.00,VWS V14.00,2013-01-25 22:54:00,
2013-01-25 17:59:00,55.9,15.5,29.47,SE,140,0.0,0.0,20,0.00,,---,0.00,VWS V14.00,2013-01-25 22:59:00,
2013-01-25 18:05:00,55.8,15.3,29.47,SE,140,0.0,0.0,20,0.00,,---,0.00,VWS V14.00,2013-01-25 23:05:00,
2013-01-25 18:10:00,55.8,15.3,29.47,SE,140,0.0,0.0,20,0.00,,---,0.00,VWS V14.00,2013-01-25 23:10:00,
2013-01-25 18:16:00,55.8,15.3,29.47,SE,140,0.0,0.0,20,0.00,,---,0.00,VWS V14.00,2013-01-25 23:16:00,
2013-01-25 18:21:00,55.8,15.3,29.47,SE,140,0.0,0.0,20,0.00,,---,0.00,VWS V14.00,2013-01-25 23:21:00,
2013-01-25 18:27:00,55.8,15.3,29.47,SE,140,0.0,0.0,20,0.00,,---,0.00,VWS V14.00,2013-01-25 23:27:00,
2013-01-25 18:32:00,55.8,15.3,29.47,SE,140,0.0,0.0,20,0.00,,---,0.00,VWS V14.00,2013-01-25 23:32:00,
2013-01-25 18:37:00,52.5,13.7,29.47,SE,140,0.0,0.0,21,0.00,,---,0.00,VWS V14.00,2013-01-25 23:37:00,
2013-01-25 18:43:00,52.5,13.7,29.47,SE,140,0.0,0.0,21,0.00,,---,0.00,VWS V14.00,2013-01-25 23:43:00,
2013-01-25 18:48:00,52.5,13.7,29.47,SE,140,0.0,0.0,21,0.00,,---,0.00,VWS V14.00,2013-01-25 23:48:00,
2013-01-25 18:54:00,52.5,13.7,29.47,SE,140,0.0,0.0,21,0.00,,---,0.00,VWS V14.00,2013-01-25 23:54:00,
2013-01-25 18:59:00,52.5,13.7,29.47,SE,140,0.0,0.0,21,0.00,,---,0.00,VWS V14.00,2013-01-25 23:59:00,
2013-01-25 19:04:00,52.5,13.7,29.47,SE,140,0.0,0.0,21,0.00,,---,0.00,VWS V14.00,2013-01-26 00:04:00,
2013-01-25 19:10:00,52.5,13.7,29.47,SE,140,0.0,0.0,21,0.00,,---,0.00,VWS V14.00,2013-01-26 00:10:00,
2013-01-25 19:15:00,51.1,17.4,29.47,SE,140,0.0,0.0,26,0.00,,---,0.00,VWS V14.00,2013-01-26 00:15:00,
2013-01-25 19:20:00,50.2,16.6,29.47,SE,144,0.0,0.0,26,0.00,,---,0.00,VWS V14.00,2013-01-26 00:20:00,
2013-01-25 19:26:00,50.0,16.5,29.47,SE,144,0.0,0.0,26,0.00,,---,0.00,VWS V14.00,2013-01-26 00:26:00,
2013-01-25 19:31:00,50.0,16.5,29.44,SE,144,0.0,0.0,26,0.00,,---,0.00,VWS V14.00,2013-01-26 00:31:00,
2013-01-25 19:36:00,50.0,16.5,29.44,SE,144,0.0,0.0,26,0.00,,---,0.00,VWS V14.00,2013-01-26 00:36:00,
2013-01-25 19:42:00,50.0,16.5,29.44,SE,144,0.0,0.0,26,0.00,,---,0.00,VWS V14.00,2013-01-26 00:42:00,
2013-01-25 19:47:00,50.0,16.5,29.44,SE,144,0.0,0.0,26,0.00,,---,0.00,VWS V14.00,2013-01-26 00:47:00,
2013-01-25 19:53:00,50.0,16.5,29.44,SE,144,0.0,0.0,26,0.00,,---,0.00,VWS V14.00,2013-01-26 00:53:00,
2013-01-25 19:58:00,50.0,16.5,29.47,SE,144,0.0,0.0,26,0.00,,---,0.00,VWS V14.00,2013-01-26 00:58:00,
2013-01-25 20:04:00,50.0,16.5,29.47,SE,144,0.0,0.0,26,0.00,,---,0.00,VWS V14.00,2013-01-26 01:04:00,
2013-01-25 20:09:00,50.0,16.5,29.47,SE,144,0.0,0.0,26,0.00,,---,0.00,VWS V14.00,2013-01-26 01:09:00,
2013-01-25 20:15:00,50.0,16.5,29.47,SE,144,0.0,0.0,26,0.00,,---,0.00,VWS V14.00,2013-01-26 01:15:00,
2013-01-25 20:20:00,48.9,17.3,29.47,SE,144,0.0,0.0,28,0.00,,---,0.00,VWS V14.00,2013-01-26 01:20:00,
2013-01-25 20:25:00,48.9,17.3,29.47,SE,144,0.0,0.0,28,0.00,,---,0.00,VWS V14.00,2013-01-26 01:25:00,
2013-01-25 20:31:00,48.9,17.3,29.47,SE,144,0.0,0.0,28,0.00,,---,0.00,VWS V14.00,2013-01-26 01:31:00,
2013-01-25 20:37:00,49.6,18.7,29.47,SE,144,0.0,0.0,29,0.00,,---,0.00,VWS V14.00,2013-01-26 01:37:00,
2013-01-25 20:42:00,49.6,18.7,29.47,SE,144,0.0,0.0,29,0.00,,---,0.00,VWS V14.00,2013-01-26 01:42:00,
2013-01-25 20:47:00,50.0,18.2,29.47,SE,144,0.0,0.0,28,0.00,,---,0.00,VWS V14.00,2013-01-26 01:47:00,
2013-01-25 20:53:00,50.2,19.2,29.47,SSW,197,0.0,0.0,29,0.00,,---,0.00,VWS V14.00,2013-01-26 01:53:00,
2013-01-25 20:58:00,51.1,20.0,29.47,SSW,197,0.0,0.0,29,0.00,,---,0.00,VWS V14.00,2013-01-26 01:58:00,
2013-01-25 21:03:00,51.8,20.6,29.47,SW,223,0.0,0.0,29,0.00,,---,0.00,VWS V14.00,2013-01-26 02:03:00,
2013-01-25 21:09:00,52.9,24.6,29.47,SW,228,0.0,0.0,33,0.00,,---,0.00,VWS V14.00,2013-01-26 02:09:00,
2013-01-25 21:14:00,53.8,25.4,29.47,South,184,2.7,2.7,33,0.00,,---,0.00,VWS V14.00,2013-01-26 02:14:00,
2013-01-25 21:19:00,54.1,23.4,29.47,SSW,205,4.0,5.4,30,0.00,,---,0.00,VWS V14.00,2013-01-26 02:19:00,
2013-01-25 21:24:00,54.9,23.2,29.47,SSW,198,4.9,4.9,29,0.00,,---,0.00,VWS V14.00,2013-01-26 02:24:00,
2013-01-25 21:29:00,55.6,22.1,29.47,SSW,198,4.9,4.9,27,0.00,,---,0.00,VWS V14.00,2013-01-26 02:29:00,
2013-01-25 21:35:00,56.1,21.7,29.47,SSW,198,4.9,4.9,26,0.00,,---,0.00,VWS V14.00,2013-01-26 02:35:00,
2013-01-25 21:40:00,56.3,21.9,29.47,SSW,205,2.2,2.7,26,0.00,,---,0.00,VWS V14.00,2013-01-26 02:40:00,
2013-01-25 21:46:00,56.3,21.0,29.47,SW,215,0.0,0.0,25,0.00,,---,0.00,VWS V14.00,2013-01-26 02:46:00,
2013-01-25 21:51:00,56.1,20.8,29.47,SSW,200,0.0,0.0,25,0.00,,---,0.00,VWS V14.00,2013-01-26 02:51:00,
2013-01-25 21:56:00,55.9,20.6,29.47,SW,214,0.0,0.0,25,0.00,,---,0.00,VWS V14.00,2013-01-26 02:56:00,
2013-01-25 22:02:00,55.8,21.4,29.50,SW,224,4.9,4.9,26,0.00,,---,0.00,VWS V14.00,2013-01-26 03:02:00,
2013-01-25 22:07:00,56.1,22.6,29.50,SSW,212,4.9,5.8,27,0.00,,---,0.00,VWS V14.00,2013-01-26 03:07:00,
2013-01-25 22:13:00,56.1,22.6,29.47,SSW,197,3.1,5.8,27,0.00,,---,0.00,VWS V14.00,2013-01-26 03:13:00,
2013-01-25 22:18:00,56.1,22.6,29.47,South,185,2.7,4.0,27,0.00,,---,0.00,VWS V14.00,2013-01-26 03:18:00,
2013-01-25 22:24:00,56.1,22.6,29.47,SSE,168,3.1,3.6,27,0.00,,---,0.00,VWS V14.00,2013-01-26 03:24:00,
2013-01-25 22:29:00,56.1,22.6,29.47,SW,223,3.6,4.9,27,0.00,,---,0.00,VWS V14.00,2013-01-26 03:29:00,
2013-01-25 22:34:00,56.1,22.6,29.47,SSW,206,3.1,5.4,27,0.00,,---,0.00,VWS V14.00,2013-01-26 03:34:00,
2013-01-25 22:41:00,56.1,22.6,29.47,SSW,197,4.9,5.8,27,0.00,,---,0.00,VWS V14.00,2013-01-26 03:41:00,
2013-01-25 22:46:00,57.2,21.7,29.50,SSW,193,5.4,5.4,25,0.00,,---,0.00,VWS V14.00,2013-01-26 03:46:00,
2013-01-25 22:52:00,57.2,21.7,29.50,SW,226,5.8,5.8,25,0.00,,---,0.00,VWS V14.00,2013-01-26 03:52:00,
2013-01-25 22:57:00,57.2,21.7,29.50,SW,217,3.6,3.6,25,0.00,,---,0.00,VWS V14.00,2013-01-26 03:57:00,
2013-01-25 23:03:00,57.2,21.7,29.50,SW,216,3.6,3.6,25,0.00,,---,0.00,VWS V14.00,2013-01-26 04:03:00,
2013-01-25 23:08:00,57.2,21.7,29.50,SSW,197,5.4,5.4,25,0.00,,---,0.00,VWS V14.00,2013-01-26 04:08:00,
2013-01-25 23:14:00,57.2,21.7,29.50,SW,218,3.6,5.8,25,0.00,,---,0.00,VWS V14.00,2013-01-26 04:14:00,
2013-01-25 23:19:00,57.2,21.7,29.50,SW,220,4.0,4.9,25,0.00,,---,0.00,VWS V14.00,2013-01-26 04:19:00,
2013-01-25 23:24:00,57.2,21.7,29.50,SW,215,4.0,4.9,25,0.00,,---,0.00,VWS V14.00,2013-01-26 04:24:00,
2013-01-25 23:30:00,57.2,21.7,29.50,SSW,209,3.6,5.4,25,0.00,,---,0.00,VWS V14.00,2013-01-26 04:30:00,
2013-01-25 23:35:00,57.2,21.7,29.50,WSW,238,5.4,5.8,25,0.00,,---,0.00,VWS V14.00,2013-01-26 04:35:00,
2013-01-25 23:41:00,57.2,21.7,29.50,SSW,206,5.8,5.8,25,0.00,,---,0.00,VWS V14.00,2013-01-26 04:41:00,
2013-01-25 23:46:00,57.2,21.7,29.50,SW,222,3.6,3.6,25,0.00,,---,0.00,VWS V14.00,2013-01-26 04:46:00,
2013-01-25 23:52:00,57.2,21.7,29.50,SSW,199,4.9,4.9,25,0.00,,---,0.00,VWS V14.00,2013-01-26 04:52:00,
2013-01-25 23:57:00,57.4,22.8,29.50,SSW,199,4.9,4.9,26,0.00,,---,0.00,VWS V14.00,2013-01-26 04:57:00,